Location: Burgwalden
(48.2830°N, 10.7576°E)
Time: 01:29:17
(UTC+00:00)

Sich 1 - Pass Details

Date: 26 September 2023
Orbit: 587 x 616 km, 82.5° (Epoch: 04 December)

Event Time Altitude Azimuth Distance (km) Brightness Sun altitude
Rises 03:34:33 0° 355° (N) 2,850 6.6 -16.2°
Reaches altitude 10° 03:36:50 10° 1° (N) 1,948 5.8 -15.9°
Maximum altitude 03:41:00 48° 76° (ENE) 790 4.1 -15.2°
Drops below altitude 10° 03:45:11 10° 152° (SSE) 1,951 5.8 -14.5°
Sets 03:47:28 0° 158° (SSE) 2,855 6.6 -14.2°
